Location: Corralito
(14.1667°N, 87.1833°W)
Time: 20:37:38
(UTC+00:00)

Cosmos 2142 Rocket - Visible Passes

Search period start: 25 September 2020 00:00
Search period end: 05 October 2020 00:00
Orbit: 952 x 1005 km, 82.9° (Epoch: 25 September)

Date Brightness Start Highest point End Pass type
(mag) Time Alt. Az. Time Alt. Az. Time Alt. Az.
25 Sep6.700:38:26NE00:38:26NE00:28:32SEvisible
25 Sep 6.6 02:12:19 10° SSW 02:23:01 17° NNW 02:24:19 10° NNW visible
26 Sep 5.1 00:53:56 10° SSE 01:00:59 29° ENE 01:05:00 10° NNE visible
26 Sep 6.6 02:40:06 10° SW 02:44:44 21° W 02:49:19 10° NW visible
27 Sep 4.3 01:19:24 10° S 01:25:43 72° E 01:31:56 10° N visible
28 Sep 6.0 00:04:39 10° ESE 00:07:04 12° E 00:09:28 10° ENE visible
28 Sep 5.1 01:45:52 10° SSW 01:52:00 53° W 01:58:04 10° N visible
29 Sep 5.2 00:27:54 10° SSE 00:33:11 29° E 00:38:24 10° NNE visible
29 Sep 6.5 02:13:25 10° SW 02:18:22 24° W 02:23:17 10° NNW visible
30 Sep 4.4 00:53:10 10° S 00:59:24 63° E 01:05:31 10° NNE visible
01 Oct 4.9 01:19:27 10° SSW 01:25:39 61° W 01:31:48 10° N visible
02 Oct 5.4 00:01:53 10° SE 00:06:52 25° E 00:11:47 10° NE visible
02 Oct 6.3 01:46:47 10° SW 01:52:00 28° W 01:57:12 10° NNW visible
02 Oct 7.9 11:16:54 10° ENE 11:18:31 11° E 11:20:10 10° E visible
03 Oct 4.6 00:26:57 10° SSE 00:33:03 55° E 00:39:06 10° NNE visible
03 Oct 7.4 02:16:19 10° WSW 02:18:27 12° W 02:20:35 10° WNW visible
04 Oct 4.8 00:53:04 10° S 00:59:19 70° W 01:05:29 10° N visible
